OneWeb SL0315

operational
NORAD ID: 49101 Int'l Des: 2021-075 Owner: ONEWEBN Country: UK Constellation: oneweb
LEOCIRCULARPOLARONEWEB_TYPE

OneWeb SL0315について

説明を読み込み中...

リアルタイム位置

3D地球を読み込み中...

次回通過

高度履歴

Altitude vs Time

uPlot chart will show altitude changes over time

軌道要素

1 49101U 21075AC 25258.14570533 -.00000155 00000-0 -46761-3 0 9990
2 49101 87.8898 45.2868 0002013 89.7625 270.3734 13.12443644199097
Epoch: Sep 15, 2025 • Age: 16 hours

現在のステータス

高度 1231.4 km
速度 7.24 km/s
衛星直下点 -43.31°S, 111.98°E
打ち上げ日 Aug 21, 2021
運用期間 4 years
タイプ internet

技術仕様

分類 Payload
質量 148.00 kg
乾燥質量 140.00 kg
総質量 148.00 kg
長さ 1.30 m
直径 1.00 m
スパン 5.00 m
形状 Trapezoid+2 pan
製造者 ONEWUS
バスタイプ ARROW
フェーズステータス In Orbit
所有者/国 ONEWEBN/UK

大規模コンステレーション

Loading constellations...